User: anonymous   Login
Location: Unspecified
(0.0000°N, 0.0000°E)
Time: 22:33:40
(UTC+00:00)
Language:

Vela 2A - Orbit

View from above orbital plane
View from above orbital plane
View from above satellite
View from above satellite

Ground track
Ground track

The orbit data is extracted from the following two-line orbital elements,

1 00836U 64040A   22011.67918061 -.00000373  00000-0  00000-0 0  9999
2 00836  32.2639 166.5961 7783091 308.8105 359.7733  0.23914339  7129
Epoch (UTC): 11 January 2022 16:18:01
Eccentricity: 0.7783091
inclination: 32.2639°
perigee height: 17927 km
apogee height: 188591 km
right ascension of ascending node: 166.5961°
argument of perigee: 308.8105°
revolutions per day: 0.23914339
mean anomaly at epoch: 359.7733°
orbit number at epoch: 712

The dashed part of the orbit path shows where the satellite is in the earth's shadow,  

DLR